Year,Month,Day,Hour,Minute,Value (Times are PST for temperature in C)
2016,06,11,00,00,11.60
2016,06,11,00,01,11.60
2016,06,11,00,02,11.60
2016,06,11,00,03,11.60
2016,06,11,00,04,11.70
2016,06,11,00,05,11.70
2016,06,11,00,06,11.60
2016,06,11,00,07,11.60
2016,06,11,00,08,11.60
2016,06,11,00,09,11.60
2016,06,11,00,10,11.60
2016,06,11,00,11,11.60
2016,06,11,00,12,11.70
2016,06,11,00,13,11.70
2016,06,11,00,14,11.70
2016,06,11,00,15,11.70
2016,06,11,00,16,11.70
2016,06,11,00,17,11.70
2016,06,11,00,18,11.70
2016,06,11,00,19,11.70
2016,06,11,00,20,11.70
2016,06,11,00,21,11.70
2016,06,11,00,22,11.60
2016,06,11,00,23,11.60
2016,06,11,00,24,11.60
2016,06,11,00,25,11.60
2016,06,11,00,26,11.50
2016,06,11,00,27,11.50
2016,06,11,00,28,11.50
2016,06,11,00,29,11.50
2016,06,11,00,30,11.40
2016,06,11,00,31,11.40
2016,06,11,00,32,11.40
2016,06,11,00,33,11.40
2016,06,11,00,34,11.40
2016,06,11,00,35,11.40
2016,06,11,00,36,11.40
2016,06,11,00,37,11.40
2016,06,11,00,38,11.40
2016,06,11,00,39,11.50
2016,06,11,00,40,11.50
2016,06,11,00,41,11.50
2016,06,11,00,42,11.50
2016,06,11,00,43,11.50
2016,06,11,00,44,11.50
2016,06,11,00,45,11.50
2016,06,11,00,46,11.50
2016,06,11,00,47,11.40
2016,06,11,00,48,11.40
2016,06,11,00,49,11.40
2016,06,11,00,50,11.40
2016,06,11,00,51,11.30
2016,06,11,00,52,11.30
2016,06,11,00,53,11.30
2016,06,11,00,54,11.30
2016,06,11,00,55,11.30
2016,06,11,00,56,11.30
2016,06,11,00,57,11.30
2016,06,11,00,58,11.30
2016,06,11,00,59,11.30
2016,06,11,01,00,11.30
2016,06,11,01,01,11.30
2016,06,11,01,02,11.30
2016,06,11,01,03,11.30
2016,06,11,01,04,11.20
2016,06,11,01,05,11.20
2016,06,11,01,06,11.20
2016,06,11,01,07,11.20
2016,06,11,01,08,11.20
2016,06,11,01,09,11.20
2016,06,11,01,10,11.20
2016,06,11,01,11,11.20
2016,06,11,01,12,11.20
2016,06,11,01,13,11.20
2016,06,11,01,14,11.10
2016,06,11,01,15,11.10
2016,06,11,01,16,11.10
2016,06,11,01,17,11.10
2016,06,11,01,18,11.10
2016,06,11,01,19,11.10
2016,06,11,01,20,11.00
2016,06,11,01,21,11.00
2016,06,11,01,22,11.00
2016,06,11,01,23,10.90
2016,06,11,01,24,10.90
2016,06,11,01,25,10.90
2016,06,11,01,26,10.90
2016,06,11,01,27,10.80
2016,06,11,01,28,10.80
2016,06,11,01,29,10.80
2016,06,11,01,30,10.80
2016,06,11,01,31,10.70
2016,06,11,01,32,10.70
2016,06,11,01,33,10.70
2016,06,11,01,34,10.70
2016,06,11,01,35,10.70
2016,06,11,01,36,10.60
2016,06,11,01,37,10.60
2016,06,11,01,38,10.60
2016,06,11,01,39,10.50
2016,06,11,01,40,10.50
2016,06,11,01,41,10.50
2016,06,11,01,42,10.50
2016,06,11,01,43,10.50
2016,06,11,01,44,10.50
2016,06,11,01,45,10.50
2016,06,11,01,46,10.40
2016,06,11,01,47,10.40
2016,06,11,01,48,10.40
2016,06,11,01,49,10.40
2016,06,11,01,50,10.40
2016,06,11,01,51,10.40
2016,06,11,01,52,10.40
2016,06,11,01,53,10.40
2016,06,11,01,54,10.40
2016,06,11,01,55,10.40
2016,06,11,01,56,10.40
2016,06,11,01,57,10.40
2016,06,11,01,58,10.40
2016,06,11,01,59,10.40
2016,06,11,02,00,10.40
2016,06,11,02,01,10.40
2016,06,11,02,02,10.40
2016,06,11,02,03,10.30
2016,06,11,02,04,10.30
2016,06,11,02,05,10.30
2016,06,11,02,06,10.30
2016,06,11,02,07,10.30
2016,06,11,02,08,10.30
2016,06,11,02,09,10.30
2016,06,11,02,10,10.30
2016,06,11,02,11,10.30
2016,06,11,02,12,10.30
2016,06,11,02,13,10.30
2016,06,11,02,14,10.40
2016,06,11,02,15,10.30
2016,06,11,02,16,10.30
2016,06,11,02,17,10.30
2016,06,11,02,18,10.30
2016,06,11,02,19,10.30
2016,06,11,02,20,10.30
2016,06,11,02,21,10.30
2016,06,11,02,22,10.40
2016,06,11,02,23,10.40
2016,06,11,02,24,10.40
2016,06,11,02,25,10.40
2016,06,11,02,26,10.40
2016,06,11,02,27,10.50
2016,06,11,02,28,10.50
2016,06,11,02,29,10.50
2016,06,11,02,30,10.50
2016,06,11,02,31,10.60
2016,06,11,02,32,10.60
2016,06,11,02,33,10.60
2016,06,11,02,34,10.60
2016,06,11,02,35,10.50
2016,06,11,02,36,10.50
2016,06,11,02,37,10.50
2016,06,11,02,38,10.50
2016,06,11,02,39,10.50
2016,06,11,02,40,10.50
2016,06,11,02,41,10.50
2016,06,11,02,42,10.50
2016,06,11,02,43,10.40
2016,06,11,02,44,10.40
2016,06,11,02,45,10.40
2016,06,11,02,46,10.40
2016,06,11,02,47,10.40
2016,06,11,02,48,10.40
2016,06,11,02,49,10.40
2016,06,11,02,50,10.40
2016,06,11,02,51,10.40
2016,06,11,02,52,10.40
2016,06,11,02,53,10.40
2016,06,11,02,54,10.40
2016,06,11,02,55,10.50
2016,06,11,02,56,10.50
2016,06,11,02,57,10.50
2016,06,11,02,58,10.50
2016,06,11,02,59,10.60
2016,06,11,03,00,10.60
2016,06,11,03,01,10.70
2016,06,11,03,02,10.70
2016,06,11,03,03,10.70
2016,06,11,03,04,10.70
2016,06,11,03,05,10.70
2016,06,11,03,06,10.70
2016,06,11,03,07,10.70
2016,06,11,03,08,10.60
2016,06,11,03,09,10.60
2016,06,11,03,10,10.60
2016,06,11,03,11,10.60
2016,06,11,03,12,10.60
2016,06,11,03,13,10.60
2016,06,11,03,14,10.60
2016,06,11,03,15,10.60
2016,06,11,03,16,10.60
2016,06,11,03,17,10.60
2016,06,11,03,18,10.60
2016,06,11,03,19,10.60
2016,06,11,03,20,10.60
2016,06,11,03,21,10.60
2016,06,11,03,22,10.60
2016,06,11,03,23,10.60
2016,06,11,03,24,10.60
2016,06,11,03,25,10.60
2016,06,11,03,26,10.60
2016,06,11,03,27,10.60
2016,06,11,03,28,10.60
2016,06,11,03,29,10.60
2016,06,11,03,30,10.60
2016,06,11,03,31,10.60
2016,06,11,03,32,10.60
2016,06,11,03,33,10.60
2016,06,11,03,34,10.70
2016,06,11,03,35,10.60
2016,06,11,03,36,10.70
2016,06,11,03,37,10.70
2016,06,11,03,38,10.70
2016,06,11,03,39,10.70
2016,06,11,03,40,10.70
2016,06,11,03,41,10.70
2016,06,11,03,42,10.70
2016,06,11,03,43,10.70
2016,06,11,03,44,10.70
2016,06,11,03,45,10.70
2016,06,11,03,46,10.70
2016,06,11,03,47,10.70
2016,06,11,03,48,10.70
2016,06,11,03,49,10.70
2016,06,11,03,50,10.60
2016,06,11,03,51,10.60
2016,06,11,03,52,10.60
2016,06,11,03,53,10.60
2016,06,11,03,54,10.60
2016,06,11,03,55,10.60
2016,06,11,03,56,10.60
2016,06,11,03,57,10.60
2016,06,11,03,58,10.60
2016,06,11,03,59,10.60
2016,06,11,04,00,10.70
2016,06,11,04,01,10.70
2016,06,11,04,02,10.70
2016,06,11,04,03,10.70
2016,06,11,04,04,10.70
2016,06,11,04,05,10.70
2016,06,11,04,06,10.70
2016,06,11,04,07,10.70
2016,06,11,04,08,10.80
2016,06,11,04,09,10.80
2016,06,11,04,10,10.80
2016,06,11,04,11,10.80
2016,06,11,04,12,10.80
2016,06,11,04,13,10.80
2016,06,11,04,14,10.80
2016,06,11,04,15,10.80
2016,06,11,04,16,10.80
2016,06,11,04,17,10.80
2016,06,11,04,18,10.90
2016,06,11,04,19,10.90
2016,06,11,04,20,10.90
2016,06,11,04,21,10.90
2016,06,11,04,22,10.90
2016,06,11,04,23,10.90
2016,06,11,04,24,10.90
2016,06,11,04,25,10.90
2016,06,11,04,26,10.90
2016,06,11,04,27,10.90
2016,06,11,04,28,10.90
2016,06,11,04,29,10.90
2016,06,11,04,30,10.90
2016,06,11,04,31,10.90
2016,06,11,04,32,10.90
2016,06,11,04,33,10.90
2016,06,11,04,34,10.90
2016,06,11,04,35,10.90
2016,06,11,04,36,10.90
2016,06,11,04,37,10.90
2016,06,11,04,38,10.90
2016,06,11,04,39,10.90
2016,06,11,04,40,10.90
2016,06,11,04,41,10.90
2016,06,11,04,42,10.90
2016,06,11,04,43,10.90
2016,06,11,04,44,10.90
2016,06,11,04,45,10.90
2016,06,11,04,46,11.00
2016,06,11,04,47,11.00
2016,06,11,04,48,11.00
2016,06,11,04,49,11.00
2016,06,11,04,50,11.00
2016,06,11,04,51,11.00
2016,06,11,04,52,11.10
2016,06,11,04,53,11.10
2016,06,11,04,54,11.10
2016,06,11,04,55,11.10
2016,06,11,04,56,11.10
2016,06,11,04,57,11.10
2016,06,11,04,58,11.10
2016,06,11,04,59,11.10
2016,06,11,05,00,11.10
2016,06,11,05,01,11.10
2016,06,11,05,02,11.10
2016,06,11,05,03,11.10
2016,06,11,05,04,11.10
2016,06,11,05,05,11.10
2016,06,11,05,06,11.10
2016,06,11,05,07,11.10
2016,06,11,05,08,11.10
2016,06,11,05,09,11.10
2016,06,11,05,10,11.10
2016,06,11,05,11,11.10
2016,06,11,05,12,11.10
2016,06,11,05,13,11.10
2016,06,11,05,14,11.10
2016,06,11,05,15,11.10
2016,06,11,05,16,11.10
2016,06,11,05,17,11.10
2016,06,11,05,18,11.10
2016,06,11,05,19,11.10
2016,06,11,05,20,11.10
2016,06,11,05,21,11.10
2016,06,11,05,22,11.20
2016,06,11,05,23,11.20
2016,06,11,05,24,11.20
2016,06,11,05,25,11.20
2016,06,11,05,26,11.20
2016,06,11,05,27,11.20
2016,06,11,05,28,11.20
2016,06,11,05,29,11.30
2016,06,11,05,30,11.30
2016,06,11,05,31,11.30
2016,06,11,05,32,11.30
2016,06,11,05,33,11.30
2016,06,11,05,34,11.30
2016,06,11,05,35,11.30
2016,06,11,05,36,11.30
2016,06,11,05,37,11.30
2016,06,11,05,38,11.30
2016,06,11,05,39,11.30
2016,06,11,05,40,11.30
2016,06,11,05,41,11.30
2016,06,11,05,42,11.30
2016,06,11,05,43,11.30
2016,06,11,05,44,11.30
2016,06,11,05,45,11.30
2016,06,11,05,46,11.30
2016,06,11,05,47,11.30
2016,06,11,05,48,11.30
2016,06,11,05,49,11.30
2016,06,11,05,50,11.30
2016,06,11,05,51,11.30
2016,06,11,05,52,11.20
2016,06,11,05,53,11.30
2016,06,11,05,54,11.20
2016,06,11,05,55,11.20
2016,06,11,05,56,11.20
2016,06,11,05,57,11.20
2016,06,11,05,58,11.20
2016,06,11,05,59,11.20
2016,06,11,06,00,11.20
2016,06,11,06,01,11.20
2016,06,11,06,02,11.20
2016,06,11,06,03,11.20
2016,06,11,06,04,11.10
2016,06,11,06,05,11.10
2016,06,11,06,06,11.10
2016,06,11,06,07,11.10
2016,06,11,06,08,11.10
2016,06,11,06,09,11.10
2016,06,11,06,10,11.10
2016,06,11,06,11,11.20
2016,06,11,06,12,11.20
2016,06,11,06,13,11.20
2016,06,11,06,14,11.20
2016,06,11,06,15,11.20
2016,06,11,06,16,11.20
2016,06,11,06,17,11.20
2016,06,11,06,18,11.20
2016,06,11,06,19,11.20
2016,06,11,06,20,11.20
2016,06,11,06,21,11.20
2016,06,11,06,22,11.30
2016,06,11,06,23,11.30
2016,06,11,06,24,11.30
2016,06,11,06,25,11.30
2016,06,11,06,26,11.30
2016,06,11,06,27,11.30
2016,06,11,06,28,11.30
2016,06,11,06,29,11.30
2016,06,11,06,30,11.30
2016,06,11,06,31,11.30
2016,06,11,06,32,11.30
2016,06,11,06,33,11.30
2016,06,11,06,34,11.30
2016,06,11,06,35,11.30
2016,06,11,06,36,11.40
2016,06,11,06,37,11.40
2016,06,11,06,38,11.40
2016,06,11,06,39,11.40
2016,06,11,06,40,11.50
2016,06,11,06,41,11.50
2016,06,11,06,42,11.50
2016,06,11,06,43,11.60
2016,06,11,06,44,11.60
2016,06,11,06,45,11.60
2016,06,11,06,46,11.70
2016,06,11,06,47,11.70
2016,06,11,06,48,11.70
2016,06,11,06,49,11.80
2016,06,11,06,50,11.80
2016,06,11,06,51,11.80
2016,06,11,06,52,11.80
2016,06,11,06,53,11.80
2016,06,11,06,54,11.90
2016,06,11,06,55,11.90
2016,06,11,06,56,11.90
2016,06,11,06,57,11.90
2016,06,11,06,58,11.90
2016,06,11,06,59,12.00
2016,06,11,07,00,12.00
2016,06,11,07,01,12.00
2016,06,11,07,02,12.10
2016,06,11,07,03,12.10
2016,06,11,07,04,12.10
2016,06,11,07,05,12.20
2016,06,11,07,06,12.20
2016,06,11,07,07,12.20
2016,06,11,07,08,12.20
2016,06,11,07,09,12.20
2016,06,11,07,10,12.20
2016,06,11,07,11,12.30
2016,06,11,07,12,12.30
2016,06,11,07,13,12.30
2016,06,11,07,14,12.30
2016,06,11,07,15,12.30
2016,06,11,07,16,12.30
2016,06,11,07,17,12.30
2016,06,11,07,18,12.30
2016,06,11,07,19,12.30
2016,06,11,07,20,12.30
2016,06,11,07,21,12.30
2016,06,11,07,22,12.30
2016,06,11,07,23,12.30
2016,06,11,07,24,12.30
2016,06,11,07,25,12.30
2016,06,11,07,26,12.30
2016,06,11,07,27,12.40
2016,06,11,07,28,12.40
2016,06,11,07,29,12.40
2016,06,11,07,30,12.40
2016,06,11,07,31,12.40
2016,06,11,07,32,12.50
2016,06,11,07,33,12.50
2016,06,11,07,34,12.60
2016,06,11,07,35,12.60
2016,06,11,07,36,12.70
2016,06,11,07,37,12.70
2016,06,11,07,38,12.70
2016,06,11,07,39,12.70
2016,06,11,07,40,12.80
2016,06,11,07,41,12.80
2016,06,11,07,42,12.80
2016,06,11,07,43,12.80
2016,06,11,07,44,12.80
2016,06,11,07,45,12.80
2016,06,11,07,46,12.80
2016,06,11,07,47,12.80
2016,06,11,07,48,12.80
2016,06,11,07,49,12.80
2016,06,11,07,50,12.80
2016,06,11,07,51,12.70
2016,06,11,07,52,12.70
2016,06,11,07,53,12.70
2016,06,11,07,54,12.60
2016,06,11,07,55,12.60
2016,06,11,07,56,12.50
2016,06,11,07,57,12.50
2016,06,11,07,58,12.50
2016,06,11,07,59,12.50
2016,06,11,08,00,12.40
2016,06,11,08,01,12.50
2016,06,11,08,02,12.50
2016,06,11,08,03,12.50
2016,06,11,08,04,12.50
2016,06,11,08,05,12.50
2016,06,11,08,06,12.50
2016,06,11,08,07,12.50
2016,06,11,08,08,12.60
2016,06,11,08,09,12.60
2016,06,11,08,10,12.70
2016,06,11,08,11,12.70
2016,06,11,08,12,12.70
2016,06,11,08,13,12.70
2016,06,11,08,14,12.70
2016,06,11,08,15,12.70
2016,06,11,08,16,12.70
2016,06,11,08,17,12.70
2016,06,11,08,18,12.70
2016,06,11,08,19,12.70
2016,06,11,08,20,12.70
2016,06,11,08,21,12.70
2016,06,11,08,22,12.70
2016,06,11,08,23,12.70
2016,06,11,08,24,12.80
2016,06,11,08,25,12.80
2016,06,11,08,26,12.80
2016,06,11,08,27,12.80
2016,06,11,08,28,12.70
2016,06,11,08,29,12.70
2016,06,11,08,30,12.70
2016,06,11,08,31,12.60
2016,06,11,08,32,12.60
2016,06,11,08,33,12.60
2016,06,11,08,34,12.60
2016,06,11,08,35,12.60
2016,06,11,08,36,12.60
2016,06,11,08,37,12.60
2016,06,11,08,38,12.60
2016,06,11,08,39,12.50
2016,06,11,08,40,12.50
2016,06,11,08,41,12.50
2016,06,11,08,42,12.50
2016,06,11,08,43,12.50
2016,06,11,08,44,12.60
2016,06,11,08,45,12.60
2016,06,11,08,46,12.60
2016,06,11,08,47,12.60
2016,06,11,08,48,12.60
2016,06,11,08,49,12.60
2016,06,11,08,50,12.60
2016,06,11,08,51,12.60
2016,06,11,08,52,12.60
2016,06,11,08,53,12.60
2016,06,11,08,54,12.70
2016,06,11,08,55,12.70
2016,06,11,08,56,12.70
2016,06,11,08,57,12.70
2016,06,11,08,58,12.80
2016,06,11,08,59,12.80
2016,06,11,09,00,12.90
2016,06,11,09,01,12.90
2016,06,11,09,02,12.90
2016,06,11,09,03,12.90
2016,06,11,09,04,12.90
2016,06,11,09,05,12.90
2016,06,11,09,06,12.90
2016,06,11,09,07,13.00
2016,06,11,09,08,13.00
2016,06,11,09,09,13.00
2016,06,11,09,10,13.00
2016,06,11,09,11,13.10
2016,06,11,09,12,13.10
2016,06,11,09,13,13.10
2016,06,11,09,14,13.10
2016,06,11,09,15,13.10
2016,06,11,09,16,13.00
2016,06,11,09,17,13.00
2016,06,11,09,18,12.90
2016,06,11,09,19,12.90
2016,06,11,09,20,12.90
2016,06,11,09,21,12.90
2016,06,11,09,22,12.90
2016,06,11,09,23,12.90
2016,06,11,09,24,13.00
2016,06,11,09,25,13.00
2016,06,11,09,26,13.10
2016,06,11,09,27,13.00
2016,06,11,09,28,13.10
2016,06,11,09,29,13.10
2016,06,11,09,30,13.10
2016,06,11,09,31,13.10
2016,06,11,09,32,13.10
2016,06,11,09,33,13.00
2016,06,11,09,34,13.00
2016,06,11,09,35,12.90
2016,06,11,09,36,13.00
2016,06,11,09,37,12.90
2016,06,11,09,38,12.90
2016,06,11,09,39,12.90
2016,06,11,09,40,12.80
2016,06,11,09,41,12.80
2016,06,11,09,42,12.70
2016,06,11,09,43,12.70
2016,06,11,09,44,12.60
2016,06,11,09,45,12.60
2016,06,11,09,46,12.50
2016,06,11,09,47,12.40
2016,06,11,09,48,12.40
2016,06,11,09,49,12.40
2016,06,11,09,50,12.50
2016,06,11,09,51,12.50
2016,06,11,09,52,12.50
2016,06,11,09,53,12.60
2016,06,11,09,54,12.60
2016,06,11,09,55,12.60
2016,06,11,09,56,12.60
2016,06,11,09,57,12.70
2016,06,11,09,58,12.70
2016,06,11,09,59,12.70
2016,06,11,10,00,12.70
2016,06,11,10,01,12.70
2016,06,11,10,02,12.80
2016,06,11,10,03,12.80
2016,06,11,10,04,12.80
2016,06,11,10,05,12.80
2016,06,11,10,06,12.80
2016,06,11,10,07,12.80
2016,06,11,10,08,12.80
2016,06,11,10,09,12.80
2016,06,11,10,10,12.80
2016,06,11,10,11,12.80
2016,06,11,10,12,12.80
2016,06,11,10,13,12.80
2016,06,11,10,14,12.80
2016,06,11,10,15,12.80
2016,06,11,10,16,12.80
2016,06,11,10,17,12.80
2016,06,11,10,18,12.80
2016,06,11,10,19,12.80
2016,06,11,10,20,12.80
2016,06,11,10,21,12.80
2016,06,11,10,22,12.80
2016,06,11,10,23,12.80
2016,06,11,10,24,12.80
2016,06,11,10,25,12.80
2016,06,11,10,26,12.80
2016,06,11,10,27,12.90
2016,06,11,10,28,12.90
2016,06,11,10,29,12.90
2016,06,11,10,30,12.90
2016,06,11,10,31,13.00
2016,06,11,10,32,13.00
2016,06,11,10,33,13.10
2016,06,11,10,34,13.00
2016,06,11,10,35,13.10
2016,06,11,10,36,13.10
2016,06,11,10,37,13.10
2016,06,11,10,38,13.10
2016,06,11,10,39,13.20
2016,06,11,10,40,13.20
2016,06,11,10,41,13.20
2016,06,11,10,42,13.20
2016,06,11,10,43,13.20
2016,06,11,10,44,13.20
2016,06,11,10,45,13.20
2016,06,11,10,46,13.20
2016,06,11,10,47,13.20
2016,06,11,10,48,13.20
2016,06,11,10,49,13.20
2016,06,11,10,50,13.20
2016,06,11,10,51,13.30
2016,06,11,10,52,13.30
2016,06,11,10,53,13.30
2016,06,11,10,54,13.30
2016,06,11,10,55,13.20
2016,06,11,10,56,13.20
2016,06,11,10,57,13.20
2016,06,11,10,58,13.30
2016,06,11,10,59,13.30
2016,06,11,11,00,13.30
2016,06,11,11,01,13.40
2016,06,11,11,02,13.40
2016,06,11,11,03,13.40
2016,06,11,11,04,13.40
2016,06,11,11,05,13.40
2016,06,11,11,06,13.50
2016,06,11,11,07,13.50
2016,06,11,11,08,13.50
2016,06,11,11,09,13.60
2016,06,11,11,10,13.70
2016,06,11,11,11,13.80
2016,06,11,11,12,13.80
2016,06,11,11,13,13.90
2016,06,11,11,14,13.90
2016,06,11,11,15,13.90
2016,06,11,11,16,14.00
2016,06,11,11,17,14.20
2016,06,11,11,18,14.30
2016,06,11,11,19,14.50
2016,06,11,11,20,14.50
2016,06,11,11,21,14.60
2016,06,11,11,22,14.50
2016,06,11,11,23,14.40
2016,06,11,11,24,14.50
2016,06,11,11,25,14.50
2016,06,11,11,26,14.60
2016,06,11,11,27,14.70
2016,06,11,11,28,14.70
2016,06,11,11,29,14.70
2016,06,11,11,30,14.60
2016,06,11,11,31,14.60
2016,06,11,11,32,14.70
2016,06,11,11,33,14.70
2016,06,11,11,34,14.70
2016,06,11,11,35,14.60
2016,06,11,11,36,14.60
2016,06,11,11,37,14.70
2016,06,11,11,38,14.80
2016,06,11,11,39,14.90
2016,06,11,11,40,15.00
2016,06,11,11,41,15.10
2016,06,11,11,42,15.10
2016,06,11,11,43,15.10
2016,06,11,11,44,15.00
2016,06,11,11,45,15.00
2016,06,11,11,46,15.00
2016,06,11,11,47,15.00
2016,06,11,11,48,14.90
2016,06,11,11,49,14.90
2016,06,11,11,50,14.90
2016,06,11,11,51,14.90
2016,06,11,11,52,14.90
2016,06,11,11,53,14.90
2016,06,11,11,54,15.00
2016,06,11,11,55,15.10
2016,06,11,11,56,15.20
2016,06,11,11,57,15.30
2016,06,11,11,58,15.30
2016,06,11,11,59,15.30
2016,06,11,12,00,15.30
2016,06,11,12,01,15.30
2016,06,11,12,02,15.30
2016,06,11,12,03,15.40
2016,06,11,12,04,15.40
2016,06,11,12,05,15.30
2016,06,11,12,06,15.30
2016,06,11,12,07,15.20
2016,06,11,12,08,15.30
2016,06,11,12,09,15.30
2016,06,11,12,10,15.30
2016,06,11,12,11,15.30
2016,06,11,12,12,15.20
2016,06,11,12,13,15.20
2016,06,11,12,14,15.20
2016,06,11,12,15,15.10
2016,06,11,12,16,15.10
2016,06,11,12,17,15.10
2016,06,11,12,18,15.10
2016,06,11,12,19,15.10
2016,06,11,12,20,15.10
2016,06,11,12,21,15.10
2016,06,11,12,22,15.10
2016,06,11,12,23,15.10
2016,06,11,12,24,15.10
2016,06,11,12,25,15.10
2016,06,11,12,26,15.10
2016,06,11,12,27,15.20
2016,06,11,12,28,15.20
2016,06,11,12,29,15.10
2016,06,11,12,30,15.10
2016,06,11,12,31,15.10
2016,06,11,12,32,15.10
2016,06,11,12,33,15.10
2016,06,11,12,34,15.20
2016,06,11,12,35,15.20
2016,06,11,12,36,15.30
2016,06,11,12,37,15.30
2016,06,11,12,38,15.30
2016,06,11,12,39,15.40
2016,06,11,12,40,15.40
2016,06,11,12,41,15.40
2016,06,11,12,42,15.50
2016,06,11,12,43,15.50
2016,06,11,12,44,15.50
2016,06,11,12,45,15.60
2016,06,11,12,46,15.60
2016,06,11,12,47,15.60
2016,06,11,12,48,15.60
2016,06,11,12,49,15.60
2016,06,11,12,50,15.50
2016,06,11,12,51,15.40
2016,06,11,12,52,15.50
2016,06,11,12,53,15.50
2016,06,11,12,54,15.60
2016,06,11,12,55,15.70
2016,06,11,12,56,15.90
2016,06,11,12,57,16.00
2016,06,11,12,58,16.10
2016,06,11,12,59,16.40
2016,06,11,13,00,16.60
2016,06,11,13,01,16.70
2016,06,11,13,02,16.60
2016,06,11,13,03,16.60
2016,06,11,13,04,16.40
2016,06,11,13,05,16.20
2016,06,11,13,06,16.10
2016,06,11,13,07,16.00
2016,06,11,13,08,15.90
2016,06,11,13,09,15.90
2016,06,11,13,10,15.90
2016,06,11,13,11,15.80
2016,06,11,13,12,15.80
2016,06,11,13,13,15.80
2016,06,11,13,14,15.70
2016,06,11,13,15,15.70
2016,06,11,13,16,15.60
2016,06,11,13,17,15.60
2016,06,11,13,18,15.60
2016,06,11,13,19,15.50
2016,06,11,13,20,15.50
2016,06,11,13,21,15.40
2016,06,11,13,22,15.50
2016,06,11,13,23,15.50
2016,06,11,13,24,15.60
2016,06,11,13,25,15.50
2016,06,11,13,26,15.60
2016,06,11,13,27,15.60
2016,06,11,13,28,15.60
2016,06,11,13,29,15.70
2016,06,11,13,30,15.60
2016,06,11,13,31,15.60
2016,06,11,13,32,15.60
2016,06,11,13,33,15.60
2016,06,11,13,34,15.70
2016,06,11,13,35,15.70
2016,06,11,13,36,15.70
2016,06,11,13,37,15.70
2016,06,11,13,38,15.80
2016,06,11,13,39,15.80
2016,06,11,13,40,15.90
2016,06,11,13,41,16.00
2016,06,11,13,42,16.10
2016,06,11,13,43,16.20
2016,06,11,13,44,16.20
2016,06,11,13,45,16.20
2016,06,11,13,46,16.10
2016,06,11,13,47,16.00
2016,06,11,13,48,15.90
2016,06,11,13,49,15.90
2016,06,11,13,50,15.80
2016,06,11,13,51,15.90
2016,06,11,13,52,15.90
2016,06,11,13,53,15.90
2016,06,11,13,54,15.90
2016,06,11,13,55,15.90
2016,06,11,13,56,15.90
2016,06,11,13,57,16.00
2016,06,11,13,58,16.00
2016,06,11,13,59,16.00
2016,06,11,14,00,16.00
2016,06,11,14,01,16.00
2016,06,11,14,02,16.10
2016,06,11,14,03,16.20
2016,06,11,14,04,16.30
2016,06,11,14,05,16.30
2016,06,11,14,06,16.40
2016,06,11,14,07,16.40
2016,06,11,14,08,16.40
2016,06,11,14,09,16.40
2016,06,11,14,10,16.30
2016,06,11,14,11,16.30
2016,06,11,14,12,16.20
2016,06,11,14,13,16.20
2016,06,11,14,14,16.30
2016,06,11,14,15,16.30
2016,06,11,14,16,16.40
2016,06,11,14,17,16.30
2016,06,11,14,18,16.30
2016,06,11,14,19,16.30
2016,06,11,14,20,16.40
2016,06,11,14,21,16.50
2016,06,11,14,22,16.60
2016,06,11,14,23,16.60
2016,06,11,14,24,16.50
2016,06,11,14,25,16.50
2016,06,11,14,26,16.40
2016,06,11,14,27,16.50
2016,06,11,14,28,16.50
2016,06,11,14,29,16.50
2016,06,11,14,30,16.50
2016,06,11,14,31,16.40
2016,06,11,14,32,16.40
2016,06,11,14,33,16.30
2016,06,11,14,34,16.30
2016,06,11,14,35,16.30
2016,06,11,14,36,16.30
2016,06,11,14,37,16.30
2016,06,11,14,38,16.40
2016,06,11,14,39,16.50
2016,06,11,14,40,16.70
2016,06,11,14,41,16.80
2016,06,11,14,42,16.80
2016,06,11,14,43,16.70
2016,06,11,14,44,16.70
2016,06,11,14,45,16.70
2016,06,11,14,46,16.70
2016,06,11,14,47,16.80
2016,06,11,14,48,16.90
2016,06,11,14,49,17.10
2016,06,11,14,50,17.20
2016,06,11,14,51,17.40
2016,06,11,14,52,17.40
2016,06,11,14,53,17.40
2016,06,11,14,54,17.40
2016,06,11,14,55,17.40
2016,06,11,14,56,17.40
2016,06,11,14,57,17.40
2016,06,11,14,58,17.30
2016,06,11,14,59,17.20
2016,06,11,15,00,17.10
2016,06,11,15,01,17.10
2016,06,11,15,02,17.10
2016,06,11,15,03,17.20
2016,06,11,15,04,17.30
2016,06,11,15,05,17.30
2016,06,11,15,06,17.30
2016,06,11,15,07,17.40
2016,06,11,15,08,17.50
2016,06,11,15,09,17.60
2016,06,11,15,10,17.40
2016,06,11,15,11,17.30
2016,06,11,15,12,17.30
2016,06,11,15,13,17.30
2016,06,11,15,14,17.40
2016,06,11,15,15,17.30
2016,06,11,15,16,17.20
2016,06,11,15,17,17.20
2016,06,11,15,18,17.10
2016,06,11,15,19,17.00
2016,06,11,15,20,17.00
2016,06,11,15,21,16.90
2016,06,11,15,22,17.00
2016,06,11,15,23,17.10
2016,06,11,15,24,17.10
2016,06,11,15,25,17.20
2016,06,11,15,26,17.20
2016,06,11,15,27,17.30
2016,06,11,15,28,17.30
2016,06,11,15,29,17.20
2016,06,11,15,30,17.00
2016,06,11,15,31,16.80
2016,06,11,15,32,16.80
2016,06,11,15,33,16.90
2016,06,11,15,34,17.00
2016,06,11,15,35,17.10
2016,06,11,15,36,17.20
2016,06,11,15,37,17.10
2016,06,11,15,38,17.10
2016,06,11,15,39,17.00
2016,06,11,15,40,16.90
2016,06,11,15,41,16.90
2016,06,11,15,42,16.90
2016,06,11,15,43,17.00
2016,06,11,15,44,17.00
2016,06,11,15,45,17.00
2016,06,11,15,46,17.00
2016,06,11,15,47,17.10
2016,06,11,15,48,17.20
2016,06,11,15,49,17.20
2016,06,11,15,50,17.20
2016,06,11,15,51,17.20
2016,06,11,15,52,17.20
2016,06,11,15,53,17.20
2016,06,11,15,54,17.10
2016,06,11,15,55,17.10
2016,06,11,15,56,17.10
2016,06,11,15,57,17.10
2016,06,11,15,58,17.30
2016,06,11,15,59,17.30
2016,06,11,16,00,17.30
2016,06,11,16,01,17.40
2016,06,11,16,02,17.40
2016,06,11,16,03,17.30
2016,06,11,16,04,17.20
2016,06,11,16,05,17.20
2016,06,11,16,06,17.10
2016,06,11,16,07,16.90
2016,06,11,16,08,16.80
2016,06,11,16,09,16.80
2016,06,11,16,10,16.90
2016,06,11,16,11,17.00
2016,06,11,16,12,17.10
2016,06,11,16,13,17.10
2016,06,11,16,14,17.10
2016,06,11,16,15,17.20
2016,06,11,16,16,17.10
2016,06,11,16,17,17.10
2016,06,11,16,18,17.00
2016,06,11,16,19,17.00
2016,06,11,16,20,17.00
2016,06,11,16,21,17.00
2016,06,11,16,22,17.00
2016,06,11,16,23,17.00
2016,06,11,16,24,17.00
2016,06,11,16,25,17.10
2016,06,11,16,26,17.00
2016,06,11,16,27,16.90
2016,06,11,16,28,16.90
2016,06,11,16,29,16.90
2016,06,11,16,30,16.80
2016,06,11,16,31,16.90
2016,06,11,16,32,16.80
2016,06,11,16,33,16.80
2016,06,11,16,34,16.70
2016,06,11,16,35,16.70
2016,06,11,16,36,16.70
2016,06,11,16,37,16.60
2016,06,11,16,38,16.60
2016,06,11,16,39,16.60
2016,06,11,16,40,16.60
2016,06,11,16,41,16.60
2016,06,11,16,42,16.60
2016,06,11,16,43,16.70
2016,06,11,16,44,16.70
2016,06,11,16,45,16.70
2016,06,11,16,46,16.70
2016,06,11,16,47,16.70
2016,06,11,16,48,16.70
2016,06,11,16,49,16.60
2016,06,11,16,50,16.50
2016,06,11,16,51,16.60
2016,06,11,16,52,16.60
2016,06,11,16,53,16.60
2016,06,11,16,54,16.60
2016,06,11,16,55,16.60
2016,06,11,16,56,16.50
2016,06,11,16,57,16.50
2016,06,11,16,58,16.50
2016,06,11,16,59,16.40
2016,06,11,17,00,16.40
2016,06,11,17,01,16.40
2016,06,11,17,02,16.50
2016,06,11,17,03,16.50
2016,06,11,17,04,16.60
2016,06,11,17,05,16.60
2016,06,11,17,06,16.60
2016,06,11,17,07,16.60
2016,06,11,17,08,16.60
2016,06,11,17,09,16.60
2016,06,11,17,10,16.70
2016,06,11,17,11,16.70
2016,06,11,17,12,16.80
2016,06,11,17,13,16.80
2016,06,11,17,14,16.80
2016,06,11,17,15,16.80
2016,06,11,17,16,16.80
2016,06,11,17,17,16.80
2016,06,11,17,18,16.80
2016,06,11,17,19,16.80